Location: Callanans Corners
(42.5326°N, 73.8846°W)
Time: 17:20:42
(UTC+00:00)

SL-16 R/B - Pass Details

Date: 06 October 2022
Orbit: 842 x 846 km, 71.0° (Epoch: 05 December)

Event Time Altitude Azimuth Distance (km) Brightness Sun altitude
Rises 23:20:20 0° 196° (SSW) 3,383 5.5 -10.4°
Reaches altitude 10° 23:22:46 10° 195° (SSW) 2,452 4.8 -10.9°
Maximum altitude 23:28:22 73° 111° (ESE) 882 2.1 -11.9°
Drops below altitude 10° 23:34:01 10° 28° (NNE) 2,470 4.4 -12.9°
Sets 23:36:28 0° 27° (NNE) 3,409 5.1 -13.4°
